Accueil
METAR-TAF:

METAR-TAF

Aéroports :

Plate-forme pétrolière

Euro, Pays-Bas

latitude: 51-59-52N, longitude: 3-16-30E, altitude: 18 m

Observation

Le bulletin a été fait il y a 23 minutes, à 10:55 UTC
Vent 5 kt de ouest/sud-ouest, variant entre sud/sud-ouest et ouest
Température 15°C
Humidité 67%
Pression 1032 hPa
Visibilité 10 km ou plus

METAR: EHSA 201055Z AUTO 24005KT 210V270 9999 ///////// 15/09 Q1032 W15/H3

Heure: 13:18 (11:18 UTC)


TAF: absent

Observations et prévisions météorologiques de plus de 4000 aéroports (messages METAR et TAF).

Les stations disponibles sont représentées par des disques jaunes et rouges sur la carte.

Passer la souris dessus pour voir le nom de la station.

Cliquer dessus pour voir les observations et prévisions météorologiques.

Pour changer de carte: cliquez sur les boutons verts avec une croix noire pour zoomer, sur le bouton vert avec un tiret pour effectuer un zoom arrière, ou sur les flèches vertes pour les cartes adjacentes.


METAR-TAF: